Theta_e
305 305 307 305 306 296 300 302 302 306 314 313 306 307 308 308 305 304 312 310 313 319 320 325 327 328 330 329 330 332 333 334 335 334 335 336 338 340 333 332 335 339 341 342 342 344 344 344 345 346 349 351 352 353 354 355 356 357 357 360 360 361 362
304 305 307 307 307 308 302 298 304 309 312 313 307 300 305 304 299 302 308 306 310 308 307 324 325 326 326 330 330 332 335 335 333 334 336 338 340 343 338 334 336 339 341 342 342 343 344 344 345 346 351 351 353 354 354 354 355 355 356 357 358 360 360
303 304 306 305 306 308 305 303 310 302 299 299 307 306 297 298 298 300 305 308 310 312 311 317 321 322 324 327 330 332 332 333 333 335 339 342 342 343 341 336 335 337 339 341 342 342 344 344 347 347 349 350 352 353 353 353 354 354 354 355 357 359 360
302 304 305 299 302 305 306 308 305 307 305 303 303 303 307 304 300 299 302 306 305 315 317 319 322 324 324 326 328 330 332 333 334 335 338 340 340 341 342 340 336 335 337 339 341 342 342 343 345 346 347 348 348 350 352 352 353 355 356 355 357 357 358
300 300 303 302 303 301 302 304 302 304 305 307 310 308 306 302 302 301 301 300 307 315 317 321 325 325 326 327 327 330 331 334 336 338 339 339 340 341 342 343 343 340 339 339 342 343 344 345 346 345 345 346 347 349 350 352 353 352 353 354 355 356 357
299 300 302 300 302 305 305 304 302 304 303 302 299 298 307 307 303 298 300 299 311 315 321 322 324 326 327 329 329 329 331 332 334 335 337 338 339 340 341 343 343 344 345 342 340 340 343 346 346 344 345 346 346 348 352 354 354 353 351 352 354 356 357
299 301 303 303 302 301 302 305 305 306 306 308 301 295 302 308 307 308 308 303 309 317 323 325 326 327 328 329 330 329 331 332 333 335 336 338 339 339 339 342 343 345 348 347 344 342 341 343 344 344 346 346 347 348 352 354 354 355 355 355 355 357 356
302 303 303 303 302 301 302 302 302 302 303 305 305 304 309 306 308 305 305 302 309 317 326 326 327 329 329 330 330 329 329 330 332 334 336 336 337 338 339 340 341 343 345 348 349 348 347 344 344 343 345 347 348 351 352 353 354 356 355 358 359 359 358
297 299 302 302 304 304 301 300 301 301 305 304 308 312 313 308 308 308 304 298 308 316 324 326 326 327 327 328 330 330 328 329 331 332 334 336 337 337 338 339 340 342 344 347 348 348 346 347 348 347 348 348 348 353 355 353 354 357 356 360 359 358 359
289 289 290 293 296 298 300 300 300 303 307 310 308 303 308 299 309 308 305 306 312 318 321 322 324 324 326 327 328 330 330 329 329 331 332 333 334 335 337 339 340 342 344 347 349 348 347 349 349 350 351 353 354 355 355 357 357 358 360 360 359 359 359
295 296 298 300 301 300 297 299 303 304 304 307 308 313 306 299 308 307 310 312 311 312 316 318 321 322 322 322 324 325 326 327 329 330 331 332 334 335 336 338 340 342 344 345 345 346 348 348 349 351 353 353 355 354 354 356 358 359 360 360 359 358 358
299 299 298 299 299 297 300 301 303 306 306 305 308 304 302 315 307 302 311 315 311 312 316 319 319 321 321 322 322 323 325 326 327 329 330 332 333 334 335 336 338 339 340 340 342 344 345 345 347 348 351 352 352 352 352 353 356 358 359 360 360 359 359
298 299 298 299 299 298 299 300 301 303 307 307 305 306 307 313 304 300 312 316 314 316 318 321 321 321 321 322 323 324 325 327 328 329 329 330 331 332 333 334 335 336 336 338 341 342 344 345 346 348 348 348 349 352 353 354 355 355 357 358 357 359 359
299 299 299 299 298 296 299 300 302 304 306 309 308 308 308 310 311 309 314 317 316 318 319 321 321 323 324 324 326 326 325 326 327 328 329 329 330 331 332 333 334 335 336 338 340 342 343 343 345 346 347 347 347 349 350 351 351 352 354 353 354 354 353
299 299 301 301 299 299 299 301 304 305 305 308 310 309 310 311 313 313 315 315 314 320 323 323 323 324 325 325 324 324 326 326 327 327 328 330 330 330 330 331 332 334 335 335 336 336 336 339 341 342 343 345 348 348 350 349 348 350 351 349 351 350 350
297 299 299 300 298 300 300 300 304 304 303 304 307 309 311 310 310 313 314 312 313 319 323 323 323 323 322 322 323 324 325 327 327 328 328 330 330 329 329 331 332 333 332 332 331 332 333 335 336 336 336 336 338 342 346 344 345 346 348 349 349 349 350
295 298 299 300 300 298 296 298 302 304 305 305 307 310 314 313 314 312 310 312 320 320 322 319 320 321 322 323 323 324 325 328 328 328 328 328 328 328 330 331 332 331 330 330 330 330 332 333 333 334 333 332 333 335 337 344 346 345 345 346 347 348 350
295 297 298 300 297 290 291 303 306 304 304 304 305 308 312 313 315 314 314 315 320 321 320 319 319 319 320 322 325 327 327 326 327 327 327 327 329 330 331 331 330 329 329 328 328 329 330 331 332 333 334 333 334 335 335 338 340 340 340 340 341 341 345
293 297 299 295 289 291 301 304 307 309 307 308 311 312 310 312 314 315 315 317 319 321 322 322 321 321 322 323 322 323 325 327 326 326 326 328 330 329 329 329 329 328 329 328 328 327 328 329 329 330 331 332 333 333 333 332 334 334 335 337 337 338 340
296 295 295 286 291 300 302 303 305 309 312 309 310 310 312 313 314 317 317 319 320 321 321 321 321 321 321 321 321 322 324 326 326 325 326 329 329 328 328 327 327 328 329 330 330 328 329 328 328 328 328 329 329 328 331 331 331 331 331 333 335 338 339
291 293 294 294 301 299 300 300 302 303 302 302 305 303 309 313 315 319 318 319 319 320 320 320 319 320 320 318 318 320 322 322 325 326 328 330 329 328 328 328 328 330 331 331 331 330 328 327 327 327 328 328 328 327 327 328 329 330 330 330 332 335 336
296 293 291 292 292 290 296 301 306 308 307 306 306 307 308 313 314 320 320 318 318 318 318 317 318 319 316 313 315 318 320 322 323 327 328 328 327 327 327 329 329 330 330 330 329 327 327 326 326 327 327 327 326 326 327 328 328 328 329 329 331 333 335
295 293 290 290 288 293 299 302 305 307 308 307 306 306 302 310 314 320 321 319 319 318 316 316 318 317 312 312 316 318 320 321 324 324 325 325 326 327 327 327 327 327 328 328 328 328 326 325 326 328 328 327 325 325 326 328 328 328 328 328 331 333 335
295 293 290 289 294 294 301 303 306 307 309 306 306 296 296 305 309 317 321 320 319 318 318 318 318 316 312 312 317 319 320 322 324 324 323 323 324 325 326 327 328 328 329 327 325 325 324 325 327 329 328 327 327 326 326 327 327 327 328 330 332 335 337
295 293 292 294 295 301 304 304 307 308 309 306 300 293 301 306 307 312 320 321 321 320 318 318 316 319 323 322 321 323 323 322 322 322 324 324 324 324 325 325 327 326 326 325 323 323 325 326 324 325 326 326 326 327 326 325 325 327 330 333 334 335 336
292 293 290 291 296 299 304 307 308 309 307 298 297 304 308 308 308 311 317 321 322 321 320 319 321 319 323 323 321 321 322 322 323 322 322 321 322 324 325 325 324 323 322 323 323 323 325 326 327 327 327 325 325 325 324 323 324 327 331 333 334 334 333
293 294 291 289 286 300 306 306 308 308 303 302 305 306 308 309 310 312 317 321 322 321 320 320 319 319 318 319 319 321 321 319 317 318 318 320 321 322 322 323 323 322 321 321 321 322 324 326 328 328 327 326 325 324 323 324 326 329 331 332 332 331 331
293 291 289 288 300 303 307 306 300 304 305 307 308 307 307 310 310 314 318 320 322 322 320 318 317 318 318 317 319 319 320 319 319 319 320 321 321 321 322 322 322 322 321 321 321 323 324 326 328 329 328 326 326 325 324 327 329 331 331 332 331 330 330
298 296 298 304 306 307 308 308 307 308 309 310 309 309 309 309 311 315 316 318 319 320 319 318 318 316 317 317 319 318 318 319 318 319 319 320 320 320 319 319 322 322 321 321 321 322 323 325 326 328 329 327 326 325 327 331 332 332 332 332 331 329 328
304 305 305 307 308 307 308 310 310 308 309 310 310 311 311 313 313 314 316 315 316 317 318 317 319 317 318 318 319 320 319 318 319 320 319 319 320 320 320 320 321 321 321 321 321 320 321 322 324 325 327 328 325 325 328 331 333 333 333 332 331 329 328
298 294 304 306 305 307 308 309 311 311 310 310 310 311 312 314 315 315 317 316 315 315 318 318 318 317 318 318 318 319 319 318 318 318 318 318 319 318 319 321 321 321 320 319 319 319 319 321 322 322 323 324 325 327 329 330 332 333 333 332 331 329 328
298 300 303 307 308 308 309 309 308 308 309 311 312 312 313 314 316 317 315 315 315 315 315 316 316 315 315 314 313 314 315 316 318 318 318 318 319 320 321 321 322 322 321 319 319 319 319 319 321 321 321 322 324 326 328 329 330 331 331 330 328 329 328
302 304 306 307 308 307 308 309 310 310 310 310 312 312 312 313 312 314 317 318 315 315 314 315 315 313 312 311 312 311 312 313 314 315 315 317 317 318 319 320 321 320 320 319 319 318 317 319 319 320 320 320 323 325 326 329 330 328 327 328 327 327 326
297 299 302 305 302 302 306 309 310 310 311 311 312 312 311 311 312 313 314 316 318 317 316 315 314 313 313 314 314 312 314 313 314 315 315 316 316 317 318 320 321 321 320 319 318 317 317 318 318 318 319 321 322 323 325 327 328 326 326 325 325 324 324
297 303 306 307 307 307 308 309 311 312 312 312 311 311 311 311 311 313 314 315 315 316 317 317 315 315 315 313 314 312 311 312 313 314 314 313 314 315 317 318 318 318 319 319 318 317 317 318 317 317 318 319 321 323 324 325 326 326 325 323 322 321 322
306 306 308 308 307 306 309 311 312 312 313 312 311 312 312 311 312 312 313 313 314 314 315 316 319 318 314 313 311 310 311 311 313 314 314 315 315 315 316 317 318 318 318 318 317 317 317 317 316 316 315 317 320 320 322 323 324 324 323 321 319 318 319
306 309 309 309 309 310 311 312 312 312 313 313 312 311 313 311 312 313 313 313 312 312 313 313 315 316 316 313 312 312 311 312 313 314 314 314 314 313 314 316 317 317 317 318 318 317 316 316 316 315 315 316 318 319 320 320 320 320 320 319 318 318 319
Wind_Speed
9 11 9 7 10 7 7 6 12 5 1 4 5 2 3 5 1 4 4 4 3 2 4 2 2 2 1 5 10 10 11 13 15 15 15 15 14 12 11 11 11 12 11 12 12 13 11 11 11 12 12 13 14 12 12 13 12 11 12 12 11 10 9
4 2 3 5 7 3 8 9 8 6 1 3 3 4 3 5 7 3 5 9 6 3 4 3 3 3 4 6 10 12 11 13 15 13 13 13 12 10 11 11 10 11 12 13 13 11 13 14 15 14 13 13 11 11 12 13 12 12 11 11 11 10 10
4 1 6 4 1 4 5 4 12 11 5 8 1 3 6 7 7 5 3 4 6 6 5 3 6 6 7 8 9 10 12 14 15 12 10 9 10 9 9 10 10 10 10 11 11 12 14 13 12 12 11 11 10 11 11 12 13 13 13 11 10 9 10
2 2 7 9 7 3 3 3 10 2 4 6 8 5 1 4 4 5 4 4 6 7 3 5 7 8 9 9 10 11 11 12 12 10 10 9 9 9 8 8 9 11 11 13 13 12 13 13 13 11 12 11 12 12 11 11 10 10 10 11 10 10 10
2 6 4 7 10 8 5 7 7 5 0 3 0 2 3 4 5 6 4 4 5 2 2 1 6 8 9 10 11 10 10 9 7 9 10 9 9 8 7 7 7 9 10 11 11 11 11 10 10 11 11 13 12 11 11 12 12 12 12 11 10 10 9
4 1 4 4 4 2 9 9 9 8 6 8 10 6 2 1 4 3 7 8 2 3 0 2 6 7 8 8 9 9 9 10 10 9 10 11 9 7 7 7 8 8 8 9 10 10 8 8 9 11 11 11 12 12 10 10 10 11 12 11 10 10 9
3 4 4 1 2 1 3 3 8 6 4 7 9 8 6 2 1 2 2 3 1 2 1 3 6 7 7 7 9 9 9 9 9 9 9 9 10 9 7 6 5 5 6 7 8 10 11 11 11 11 10 11 11 12 11 9 10 10 10 10 9 8 8
2 2 2 4 2 2 5 6 4 2 6 4 6 5 7 6 5 4 3 5 2 2 3 4 6 7 7 7 7 8 8 8 9 10 10 10 10 10 8 6 5 5 5 6 6 8 8 9 11 13 11 11 10 9 9 10 11 11 10 8 7 7 7
2 2 2 4 3 2 5 3 4 3 3 0 3 5 1 5 6 2 7 9 3 4 5 4 8 9 9 9 8 8 8 7 8 9 9 8 9 9 9 9 8 8 7 8 8 8 10 8 7 8 9 10 10 9 8 9 9 9 8 7 7 8 8
6 6 5 1 2 6 5 1 4 4 3 3 5 6 4 4 3 1 5 2 3 6 5 8 9 9 9 8 9 8 8 8 8 8 8 8 8 8 9 9 9 9 9 7 5 6 6 4 6 7 7 8 8 8 7 6 7 7 7 6 6 7 7
3 3 1 1 1 4 2 6 6 7 2 3 2 2 5 8 5 7 2 1 8 9 10 11 11 11 11 10 9 9 8 7 6 6 7 7 7 7 8 8 8 7 6 8 7 6 6 6 4 4 5 5 6 7 7 7 7 8 8 9 9 8 7
5 3 1 3 1 2 4 7 8 8 7 5 4 6 5 7 6 5 3 6 11 12 14 13 12 11 10 10 9 9 8 8 8 8 7 8 8 7 7 7 8 8 6 5 6 6 7 6 6 6 5 6 9 10 9 9 10 10 8 9 10 10 9
1 2 3 3 3 3 4 6 8 11 8 5 4 3 3 6 7 5 8 12 10 11 16 15 12 12 11 11 10 10 10 9 9 9 9 9 8 8 7 7 6 6 6 5 6 6 5 6 7 7 7 7 9 8 8 6 6 5 2 4 6 6 7
2 2 3 0 6 3 5 9 8 8 9 6 3 4 3 5 5 4 8 11 6 7 13 14 12 10 12 11 10 10 11 11 11 10 10 10 9 9 8 8 7 7 7 6 6 6 5 6 7 7 7 7 7 9 10 8 7 7 7 5 5 6 5
4 2 4 2 4 4 6 7 10 11 9 4 4 2 2 3 2 4 8 9 5 5 11 13 12 12 12 12 13 12 11 12 11 11 11 10 10 9 8 8 8 8 8 8 8 8 7 6 5 4 2 2 6 8 8 9 9 7 9 8 7 5 4
2 5 9 8 1 5 6 10 11 12 9 6 5 3 3 2 1 3 6 6 6 9 13 13 14 14 14 15 14 12 10 11 11 11 11 10 10 8 8 8 9 9 9 10 10 9 8 8 7 7 7 7 6 1 8 8 5 3 4 6 7 7 6
2 6 6 8 4 2 1 6 7 6 1 0 4 1 1 2 5 6 6 1 3 13 14 16 15 15 14 14 13 12 12 12 12 12 11 10 9 9 9 8 9 9 9 10 10 9 8 9 10 9 9 11 9 7 4 8 8 7 6 4 3 4 6
2 7 8 5 3 3 1 3 3 3 3 2 4 3 2 2 3 2 3 3 3 14 16 18 17 17 14 12 10 9 10 12 11 10 10 11 11 10 10 9 9 9 9 8 9 10 9 10 10 10 12 12 10 9 8 5 5 5 7 7 7 7 5
2 5 5 4 8 4 4 2 4 4 1 1 3 4 1 1 3 3 3 3 9 14 15 15 15 15 11 8 8 7 8 8 9 10 9 11 11 11 11 11 10 10 11 11 11 10 9 9 8 9 9 9 9 9 7 9 7 8 8 9 10 10 8
1 2 2 3 3 3 3 4 10 8 2 5 3 3 3 1 3 3 3 5 8 12 12 13 13 13 12 9 5 5 6 6 9 10 9 11 11 11 11 11 10 10 10 10 11 10 9 9 10 10 9 9 10 9 8 9 8 8 8 8 8 8 9
2 1 2 3 4 2 6 1 8 9 6 8 6 3 2 1 3 4 7 8 10 11 13 14 12 12 11 9 5 3 5 4 5 8 11 12 12 12 12 12 12 11 11 11 11 9 9 10 11 11 10 9 10 10 9 9 8 7 8 8 6 7 8
1 1 2 2 2 6 4 3 7 6 5 6 7 5 2 5 6 4 9 12 15 16 15 13 14 13 12 10 7 6 6 6 6 7 9 9 11 12 13 13 12 12 12 12 12 12 11 10 8 9 10 10 10 11 10 9 9 9 8 8 6 6 6
2 2 3 2 3 2 2 10 12 12 7 6 4 5 3 6 6 4 9 13 16 16 14 15 15 13 12 12 8 7 8 8 8 8 8 10 10 11 12 14 14 13 11 12 12 12 12 11 8 8 7 9 11 11 9 8 9 10 9 6 6 7 7
1 0 2 2 1 2 7 12 14 15 10 1 2 4 2 6 10 5 8 14 16 15 14 15 15 16 15 13 10 10 8 7 6 7 9 9 9 10 11 12 13 12 12 13 13 12 12 9 7 9 9 10 10 9 8 7 9 9 7 4 5 7 8
3 1 0 1 2 1 8 12 15 14 8 2 5 2 4 10 12 8 7 12 15 16 16 14 14 2 3 11 12 10 7 7 6 5 6 8 8 9 10 11 11 10 9 10 11 11 8 7 7 8 9 10 9 9 8 8 7 6 5 5 6 7 7
1 2 2 1 2 3 8 14 10 10 6 3 2 5 7 11 13 10 8 12 13 15 15 12 4 6 13 13 11 12 15 14 10 10 9 9 9 8 9 9 10 10 10 11 12 10 8 7 8 8 9 10 8 8 8 8 5 3 4 6 7 8 8
1 1 1 0 2 4 12 18 4 13 5 5 6 11 12 8 10 9 7 10 11 12 11 5 7 13 15 15 15 14 11 13 13 12 12 12 12 12 11 10 9 11 10 10 10 9 7 7 7 8 11 10 8 8 8 5 3 3 5 6 7 8 8
2 0 1 1 4 6 10 9 6 7 3 7 8 7 10 8 7 6 4 6 6 8 7 9 10 12 11 10 13 13 13 13 14 12 11 10 10 10 9 10 10 12 12 10 10 9 7 6 6 6 8 9 8 9 7 3 3 4 6 7 7 8 8
2 3 3 3 2 3 4 4 3 3 6 6 7 7 8 8 7 8 3 1 2 3 3 7 12 16 19 18 17 17 17 16 15 14 13 11 11 10 11 10 8 8 11 12 11 10 8 8 6 6 6 9 10 9 4 3 4 5 6 7 7 8 8
1 3 3 2 1 4 6 3 2 4 7 6 7 7 7 6 5 6 2 4 4 4 2 3 3 2 6 11 13 13 14 14 13 13 12 10 10 10 10 10 9 10 11 11 12 11 10 8 7 6 6 7 9 7 4 3 4 5 6 7 7 7 7
2 2 1 5 2 3 7 8 5 4 7 8 7 8 8 8 8 5 3 6 7 6 6 6 6 2 7 5 7 6 2 9 13 13 13 11 12 12 11 10 10 10 10 10 11 11 10 8 7 7 7 7 7 6 5 5 6 6 7 7 8 7 7
2 3 3 6 2 4 5 8 9 10 10 9 7 7 7 8 8 6 4 6 9 8 9 7 9 5 4 5 8 7 7 8 4 4 8 10 10 10 10 9 9 10 10 11 11 10 9 7 7 7 7 6 5 4 5 6 7 7 7 7 8 8 8
2 3 2 9 2 4 2 10 8 7 7 7 7 7 8 8 9 9 8 5 6 10 12 12 11 10 9 9 8 7 7 7 6 8 8 8 8 8 9 8 8 9 10 11 11 11 8 7 7 7 7 6 5 6 5 6 7 8 9 10 9 10 9
2 1 3 7 2 1 5 7 8 8 8 8 7 7 8 7 6 7 6 5 5 4 9 12 13 13 10 10 9 7 5 6 7 8 7 6 6 6 6 7 8 9 10 11 11 10 8 7 7 7 7 6 6 5 5 6 8 9 9 9 9 8 7
0 2 1 1 1 4 3 4 6 5 6 7 8 8 7 5 4 3 4 4 4 4 2 5 12 12 11 10 9 7 3 3 2 5 9 9 6 5 4 6 8 7 7 9 10 9 7 7 7 7 7 6 6 6 5 6 7 8 7 7 7 7 7
3 2 1 1 2 3 5 7 6 4 4 6 6 7 7 5 3 2 4 4 2 2 2 4 1 8 12 12 13 12 8 6 4 5 7 8 8 5 3 3 5 7 7 7 8 8 6 7 6 6 7 6 6 6 6 6 6 7 7 7 7 7 7
1 0 3 4 5 6 5 6 4 2 5 6 5 5 7 7 4 2 3 5 4 2 1 2 1 2 7 10 11 13 12 11 10 10 10 8 8 6 4 3 2 5 5 5 5 6 6 6 6 6 6 5 4 5 6 6 7 7 7 7 8 7 6
Wind_Direction
195 192 147 179 162 202 158 172 203 204 67 157 81 98 7 60 101 213 150 246 210 253 234 208 163 141 163 188 191 192 185 178 169 177 180 178 180 177 175 183 186 183 182 187 190 187 184 182 184 188 187 184 187 184 184 187 189 187 189 192 191 191 190
231 25 208 175 209 104 121 197 184 95 40 18 168 198 166 218 223 191 179 219 218 171 233 135 141 149 137 164 180 182 171 171 179 183 176 171 171 167 171 176 177 179 183 186 190 189 185 185 189 192 190 189 183 186 187 186 187 189 191 193 195 192 190
125 113 153 131 130 263 207 214 138 192 161 194 155 173 196 195 214 199 213 265 265 217 217 153 188 174 161 165 171 169 172 179 182 176 159 145 137 144 158 169 175 178 182 184 189 189 191 193 194 196 189 182 181 186 192 195 194 193 191 194 197 196 194
8 178 181 202 170 157 57 99 176 357 214 180 174 216 190 220 205 197 185 195 240 195 220 186 172 171 168 166 176 182 176 180 178 163 153 145 147 153 157 161 174 177 180 185 188 187 189 191 189 188 185 187 191 191 189 196 194 189 189 194 193 196 198
229 178 208 208 176 170 168 188 181 185 318 352 50 79 231 224 198 214 197 212 229 137 47 223 162 171 175 172 174 175 180 176 157 150 150 150 149 144 144 149 152 167 173 181 183 185 191 188 186 187 189 192 193 192 194 192 188 188 190 194 194 196 196
213 47 54 345 319 239 187 178 192 189 149 162 188 199 92 254 204 186 195 228 97 81 328 197 174 171 173 172 160 160 167 173 175 168 169 169 157 138 138 139 147 154 161 175 181 181 180 173 175 189 191 187 189 193 190 188 190 195 197 194 195 191 192
329 329 355 339 248 331 16 223 193 178 201 163 197 212 162 166 116 23 357 285 115 23 135 181 171 167 165 171 164 163 159 159 163 164 164 168 167 157 147 140 144 148 149 153 163 168 175 176 184 188 188 190 190 190 180 181 186 192 196 194 190 185 186
248 181 142 110 98 207 135 77 41 202 211 233 226 230 153 181 139 192 158 236 105 142 140 158 149 139 136 152 152 144 135 139 153 164 164 163 162 157 155 149 152 165 157 149 148 157 158 169 182 188 189 191 189 184 184 183 192 191 191 180 173 175 184
85 97 161 140 140 107 44 11 10 335 302 196 74 84 122 200 175 237 187 226 147 141 174 141 154 148 151 153 160 152 138 141 148 157 166 161 159 161 165 164 164 169 174 167 166 158 149 180 198 194 181 182 184 179 178 188 190 181 184 175 176 184 190
170 168 168 128 350 1 327 49 351 39 336 118 171 188 164 228 130 210 217 194 80 142 172 170 174 169 164 169 170 163 160 152 150 150 150 153 160 165 170 170 170 175 177 175 161 152 154 194 181 173 178 180 176 160 169 181 166 154 157 156 174 186 191
99 72 332 54 253 301 12 344 17 0 2 325 301 63 176 215 149 196 186 80 151 173 188 177 173 167 163 156 163 160 154 147 143 146 149 152 153 159 166 174 177 175 179 179 172 167 156 159 165 182 172 149 129 127 142 151 161 165 163 161 161 175 191
83 117 22 350 242 21 44 32 22 19 11 350 293 205 218 114 132 227 128 167 156 186 184 181 171 167 161 159 157 150 146 150 155 152 150 147 148 151 152 160 167 169 163 159 173 177 166 160 169 174 166 153 165 175 174 167 165 174 175 167 163 168 176
43 18 24 47 106 64 58 45 34 27 5 10 327 338 346 189 212 251 157 173 187 180 184 176 170 166 161 157 155 150 149 151 151 152 155 158 156 152 148 142 143 135 138 152 165 165 169 172 171 167 165 166 175 184 184 169 167 143 126 145 147 158 171
198 5 360 117 146 167 47 31 30 27 31 27 360 337 2 344 2 1 161 170 179 163 173 169 160 161 154 151 149 150 157 160 157 158 158 158 156 153 145 133 126 125 124 131 144 158 153 165 164 172 174 173 179 181 179 172 168 154 158 149 158 172 165
174 24 352 351 119 136 60 30 21 21 17 50 60 60 38 319 37 29 145 151 146 169 166 161 152 157 157 153 157 162 165 165 167 168 169 164 159 149 139 130 118 111 106 103 102 97 96 110 126 129 94 176 191 183 172 170 163 158 162 164 170 173 173
191 27 353 358 297 129 70 28 12 10 12 17 17 8 38 303 17 128 140 168 183 170 163 157 158 161 165 163 160 159 161 165 166 170 169 167 161 156 145 128 118 111 100 97 95 91 83 77 73 67 68 68 65 108 181 169 162 142 144 158 168 172 171
322 350 357 339 305 180 188 25 350 332 17 274 311 260 353 305 163 169 202 25 36 165 163 160 165 166 162 164 164 161 164 168 171 171 165 161 159 152 147 135 124 110 102 101 100 95 90 83 77 77 77 72 72 76 88 166 182 185 177 168 155 178 184
322 342 335 328 275 247 115 50 308 268 8 26 345 10 37 73 230 291 332 327 170 170 174 174 167 168 168 162 165 170 168 168 167 164 158 160 152 146 139 134 124 112 104 98 93 91 91 92 90 87 81 81 76 69 67 79 112 110 114 106 106 95 93
322 335 296 219 224 212 68 2 342 315 287 108 63 117 104 345 300 305 259 212 173 182 184 170 163 158 146 142 148 151 161 165 157 151 145 153 151 139 132 126 117 107 108 106 101 97 98 98 93 86 78 79 80 69 60 71 70 83 87 96 92 92 86
222 239 73 215 170 60 178 114 39 358 312 12 221 165 197 214 244 243 213 168 172 172 162 153 155 145 124 112 110 148 159 168 160 152 151 157 149 138 132 117 106 104 99 99 101 100 99 100 96 89 91 86 78 74 73 70 62 62 66 75 90 98 104
298 10 238 282 349 227 90 105 11 6 1 340 342 330 114 346 283 205 152 152 155 146 150 148 128 128 130 133 139 151 166 147 164 152 147 155 145 131 122 115 110 103 99 97 97 96 94 95 97 98 97 89 89 84 75 78 74 66 69 53 37 72 89
316 265 258 254 219 225 91 11 324 337 310 295 281 262 116 13 335 246 156 157 155 152 151 139 137 141 145 163 175 171 159 154 136 141 132 127 126 125 119 115 114 110 106 105 100 97 90 81 85 96 95 94 91 87 78 73 73 66 63 72 59 54 60
196 216 251 245 243 78 32 334 331 318 319 286 294 245 66 5 347 268 172 158 163 159 152 148 151 161 171 175 169 166 161 159 153 137 132 128 127 126 127 126 121 115 108 106 104 101 95 87 81 85 86 86 88 87 82 82 84 79 72 69 77 83 87
49 94 240 251 350 2 358 334 327 321 321 290 200 259 134 16 346 305 200 170 168 166 156 165 170 173 174 179 167 154 155 149 143 142 138 135 132 125 120 116 113 112 114 109 103 99 98 98 99 98 94 86 83 84 84 71 66 73 74 57 82 85 85
105 288 262 270 168 102 346 324 318 316 318 249 252 267 28 343 322 307 239 188 175 169 167 178 186 192 67 121 127 127 114 121 119 114 120 120 122 123 118 111 112 109 102 98 98 99 97 103 103 93 90 88 83 80 77 71 64 60 82 94 87 92 96
343 28 280 282 5 61 324 319 320 312 276 242 316 4 317 306 300 292 245 206 188 179 180 183 175 122 127 138 138 147 156 165 160 148 143 131 118 105 106 111 111 107 103 101 102 99 98 101 99 96 93 87 82 77 72 65 49 42 69 86 92 87 81
184 203 283 270 229 61 7 325 305 29 14 12 310 309 305 293 301 283 241 210 192 183 180 159 123 142 147 151 153 166 167 156 155 156 153 146 142 137 133 125 120 116 107 98 92 90 85 86 88 97 96 92 88 80 72 60 44 59 75 82 81 83 83
336 162 280 36 13 327 350 359 25 354 349 303 304 300 302 317 323 316 243 214 196 197 173 156 151 127 132 154 160 163 169 164 157 156 151 143 135 134 128 124 123 115 108 104 97 85 76 68 67 77 95 96 91 83 72 47 62 84 89 90 89 86 84
314 19 33 37 25 338 356 356 10 320 322 326 315 305 289 310 335 336 311 352 42 42 140 159 147 158 172 170 175 173 173 166 157 154 151 144 137 131 127 121 113 109 111 110 103 90 77 70 64 65 79 96 91 83 68 67 74 92 96 99 99 99 98
96 75 11 9 58 17 10 20 328 341 359 3 352 347 338 343 338 321 321 73 55 67 38 177 122 100 161 160 169 175 172 160 148 141 137 133 127 122 118 117 113 111 106 100 96 92 79 71 68 59 58 77 91 94 101 86 93 99 104 103 101 101 101
271 141 91 22 22 25 23 13 16 34 26 16 12 11 1 350 355 9 49 99 81 74 75 108 121 156 106 52 15 352 225 160 149 145 141 136 134 132 125 122 121 115 109 101 97 92 85 75 76 74 70 73 90 105 102 107 105 102 102 105 106 106 104
290 63 45 349 238 149 44 26 9 7 5 7 25 34 16 6 8 15 43 96 94 89 79 114 162 122 53 96 103 92 20 359 24 93 116 125 121 116 119 121 116 110 104 103 99 92 83 73 71 74 76 76 78 87 92 100 105 104 103 108 112 110 111
339 137 83 357 130 189 46 34 28 11 357 345 8 38 39 21 12 9 15 34 101 110 109 98 87 80 66 54 57 78 98 90 59 41 53 52 75 96 104 107 108 106 109 104 101 98 92 84 79 72 69 71 73 77 77 94 104 103 106 104 104 113 116
264 2 15 352 339 306 6 16 17 3 357 348 357 26 39 39 23 4 358 13 17 105 132 130 126 118 110 103 93 85 74 90 99 102 89 71 42 47 66 81 80 91 100 107 107 104 97 92 86 79 69 60 58 68 71 94 111 115 111 104 98 97 100
22 104 47 47 295 281 293 342 353 358 357 358 13 14 12 30 57 26 8 352 13 33 56 138 136 132 135 132 121 101 54 15 347 101 109 100 84 70 59 96 105 101 103 107 110 108 105 99 92 86 77 66 61 58 63 70 88 102 104 100 96 98 94
286 246 224 314 272 302 322 330 341 355 356 337 353 13 11 1 15 67 84 52 10 345 1 358 97 144 140 139 137 137 125 115 84 58 67 88 97 88 41 54 96 108 110 113 116 114 109 104 97 93 88 79 66 74 72 72 78 86 93 102 102 99 99
322 74 287 283 275 284 300 304 318 1 356 347 334 341 2 9 9 10 104 107 84 85 116 174 2 19 146 146 150 145 143 148 149 136 121 101 84 75 57 53 91 117 120 116 115 113 108 103 96 89 86 72 62 75 86 91 88 87 87 93 98 97 99